Location: Bittkow
(50.3000°N, 19.0000°E)
Time: 13:55:07
(UTC+00:00)

Cosmos 2181 Rocket - Pass Details

Date: 19 September 2020
Orbit: 953 x 1014 km, 82.9° (Epoch: 25 October)

Event Time Altitude Azimuth Distance (km) Brightness Sun altitude
Exits shadow 01:47:57 40° 285° (WNW) 1,391 4.5 -24.4°
Maximum altitude 01:48:08 40° 289° (WNW) 1,390 4.5 -24.4°
Drops below altitude 10° 01:53:56 10° 358° (N) 2,720 6.7 -23.6°
Sets 01:56:39 0° 6° (N) 3,679 7.6 -23.3°
